Find Starlink 4567

NORAD ID: 53970 Int'l Des: 2022-125 Owner: SPXS Country: US Constellation: starlink operational
LEOCIRCULAR

Live Position

Loading 3D Globe...

About Starlink 4567

Description loading...

Upcoming Passes

Passes for default location (London). Set your location on the main map for personalized predictions.

Altitude History

Loading altitude history...

Two-Line Element Set

1 53970U 22125G 26122.88619534 -.00000664 00000-0 -23653-4 0 9994
2 53970 53.2189 335.8632 0001299 90.5168 269.5973 15.08831614197582
Epoch: May 2, 2026 • Age: 9 hours

Current Status

Altitude 541.0 km
Velocity 7.59 km/s
Sub-Earth Point -2.27°S, 155.6°W
Launch Date Oct 5, 2022
Age 3.5 years
Type internet

Technical Details

Classification Payload
Mass 305.00 kg
Dry Mass 290.00 kg
Total Mass 305.00 kg
Length 0.20 m
Diameter 2.80 m
Span 9.00 m
Shape Box + pan
Manufacturer SPXS
Bus Type Starlink
Phase Status In Orbit
Owner/State SPXS/US

Most Searched